Regional Weather Roundup
Issued by NWS

Home | Current Version | Previous Version | Graphics & Text | Print | Product List | Glossary On
Versions: 1 2 3 4 5 6 7 8 9 10 11 12 13 14 15 16 17 18 19 20 21 22 23 24 25 26 27 28 29 30 31 32 33 34 35 36 37 38 39 40 41 42 43 44 45 46 47 48 49 50
000
ASUS45 KBOU 262307
RWRCO

WEATHER ROUNDUP FOR COLORADO
NATIONAL WEATHER SERVICE DENVER/BOULDER CO
500 PM MDT TUE MAY 26 2015

NOTE: "FAIR" INDICATES FEW OR NO CLOUDS BELOW 12000 FEET WITH NO
SIGNIFICANT WEATHER AND/OR OBSTRUCTIONS TO VISIBILITY.

COZ001>005-013-030-031-270000-
...NORTHWEST COLORADO...

CITY           SKY/WX    TMP DP  RH WIND       PRES   REMARKS
CRAIG          PTSUNNY   62  42  47 CALM      30.07F
HAYDEN         CLOUDY    55  45  67 E14       30.10S
MEEKER         PTSUNNY   58  46  64 SE13      30.08F
MOUNT WERNER   NOT AVBL
STEAMBOAT SPGS CLOUDY    50  42  73 NE14G20   30.12F
WALDEN         CLOUDY    43  39  87 SW13      30.20R
$$

COZ006>008-011-270000-
...WEST CENTRAL VALLEYS...

CITY           SKY/WX    TMP DP  RH WIND       PRES   REMARKS
GRAND JUNCTION LGT RAIN  56  50  80 E17       30.05F
MONTROSE       LGT RAIN  57  46  66 NE5       30.14S
EAGLE          PTSUNNY   57  43  58 SW13      30.15R
RIFLE          PTSUNNY   58  45  62 E16       30.05F
DELTA          CLOUDY    57  51  79 MISG      30.11F THUNDER
NUCLA          CLOUDY    59  45  58 SE9       30.14F
$$

COZ017>023-064>068-270000-
...SOUTHWEST COLORADO...

CITY           SKY/WX    TMP DP  RH WIND       PRES   REMARKS
DURANGO        PTSUNNY   66  34  30 W10       30.11F
CORTEZ         MOSUNNY   68  40  35 NW13      30.09S
PAGOSA SPRINGS MOSUNNY   61  38  43 SE3       30.17F THUNDER
TELLURIDE      TSTM      46  41  82 NW8       30.29R
WOLF CREEK PAS NOT AVBL
$$

COZ009-010-012-014-032>034-037-058>063-270000-
...CENTRAL COLORADO...

CITY           SKY/WX    TMP DP  RH WIND       PRES   REMARKS
ASPEN          CLOUDY    52  38  58 VRB3      30.17R
BUENA VISTA    PTSUNNY   62  27  26 SW14G22   30.11S
COPPER MTN     CLOUDY    41  32  70 W15G22    30.34S
BERTHOUD PASS  HAZE      32  23  69 NW8       30.37R THUNDER VSB<1/4
COTTONWOOD PAS PTSUNNY   54  27  35 W29G37    30.22S
GUNNISON       CLOUDY    55  34  44 N15       30.19R
KREMMLING      CLOUDY    55  39  54 N3        30.17R
LEADVILLE      CLOUDY    49  31  49 NW16G22   30.22R
SALIDA         PTSUNNY   65  32  29 SW10G18   30.17R
SUNLIGHT       CLOUDY    41  37  87 CALM      30.31S
WILKERSON PASS PTSUNNY   50  27  40 CALM      30.33S
$$

COZ069>075-270000-
...SAN LUIS VALLEY/SANGRE DE CRISTO MOUNTAINS...

CITY           SKY/WX    TMP DP  RH WIND       PRES   REMARKS
ALAMOSA        TSTM      51  41  68 NW7       30.15R
LA VETA PASS   PTSUNNY  N/A N/A N/A MISG      30.27S
SAGUACHE       DRIZZLE   54  41  62 N14       30.18R
$$

COZ035-036-038>040-270000-
...NORTHERN COLORADO FRONT RANGE...

CITY           SKY/WX    TMP DP  RH WIND       PRES   REMARKS
DENVER INTL AP PTSUNNY   67  42  40 VRB7      30.01F THUNDER
DMNS CITY PARK   N/A     70  39  33 NE9       30.00S
AURORA         PTSUNNY   69  44  40 N12       30.03S
FRONT RANGE AP PTSUNNY   66  46  48 NW7       30.04R
ERIE MUNI ARPT PTSUNNY   69  37  31 S7        30.00S
BOULDER MUN AP PTSUNNY   66  41  39 SE6       30.01S
CENTENNIAL     PTSUNNY   65  42  43 NE13      30.03R
BROOMFIELD     PTSUNNY   64  41  42 CALM      30.04S
FORT COLLINS   PTSUNNY   63  43  48 E6G29     30.02R
LONGMONT       PTSUNNY   69  46  43 CALM      30.03R
$$

COZ041-046-047-076>085-087-088-270000-
...PIKES PEAK/PALMER DIVIDE AND SOUTHERN FOOTHILLS...

CITY           SKY/WX    TMP DP  RH WIND       PRES   REMARKS
COLO. SPRINGS  TSTM      59  45  59 E7        30.07S
A. F. ACADEMY  PTSUNNY   60  42  51 S12       30.07S
ELLICOTT       PTSUNNY  N/A N/A N/A S9        30.07R THUNDER
FALCON         PTSUNNY   65  38  37 S16       30.11S
FORT CARSON    PTSUNNY   67  47  49 NE7       30.05R
LIMON          MOSUNNY   66  43  43 S8        30.05R
MONUMENT HILL  PTSUNNY   61  41  48 N14       30.11S
TRINIDAD       LGT RAIN  72  45  37 SE18G24   30.02F
$$

COZ042>045-048>051-090-091-270000-
...NORTHEAST COLORADO...

CITY           SKY/WX    TMP DP  RH WIND       PRES   REMARKS
GREELEY ARPT   MOSUNNY   68  43  40 E6        30.00R
AKRON          PTSUNNY   66  48  52 E10       30.01S
BURLINGTON     CLOUDY    66  50  56 SE13      30.02R
WRAY           PTSUNNY   70  47  44 CALM      29.99S
STERLING       PTSUNNY   64  54  68 NE7       29.98F
HOLYOKE        MOSUNNY   72  52  49 SE3       30.00S
FORT MORGAN    PTSUNNY   67  47  48 E14       30.00S
$$

COZ086-089-092>099-270000-
...SOUTHEAST COLORADO...

CITY           SKY/WX    TMP DP  RH WIND       PRES   REMARKS
PUEBLO         MOSUNNY   73  42  32 SE7       29.97S
LA JUNTA       SUNNY     75  46  35 SE7       29.98S
LAMAR          SUNNY     75  49  39 VRB6      29.96F
SPRINGFIELD      N/A     71  47  42 SE9       30.00F
$$


USA.gov is the U.S. government's official web portal to all federal, state and local government web resources and services.